Regional Weather Roundup
Issued by NWS

Home | Current Version | Previous Version | Text Only | Print | Product List | Glossary On
Versions: 1 2 3 4 5 6 7 8 9 10 11 12 13 14 15 16 17 18 19 20 21 22 23 24 25 26 27 28 29 30 31 32 33 34 35 36 37 38 39 40 41 42 43 44 45 46 47 48 49 50
000
ASUS43 KDTX 232001
RWRMI
MICHIGAN HOURLY REGIONAL WEATHER ROUNDUP
NATIONAL WEATHER SERVICE DETROIT/PONTIAC MI
300 PM EST THU FEB 23 2017

NOTE: "FAIR" INDICATES FEW OR NO CLOUDS BELOW 12,000 FEET WITH NO
SIGNIFICANT WEATHER AND/OR OBSTRUCTION TO VISIBILITY.

MIZ047>049-052>055-059>063-066>070-074>076-081>083-232100-
SOUTHEAST LOWER MICHIGAN

CITY           SKY/WX    TMP DP  RH WIND       PRES   REMARKS
ADRIAN         SUNNY     64  45  49 W7        29.76R
ALMA           CLOUDY    52  36  56 NW7G16    29.81R
ANN ARBOR      SUNNY     65  41  41 SW9       29.74R
BAD AXE        CLOUDY    48  38  67 NW7       29.80R
CARO           SUNNY     52  42  68 NW10      29.78R
DETROIT CITY   SUNNY     66  38  35 SW5       29.73R
DETROIT        MOSUNNY   68  39  34 W12       29.73R
FLINT          SUNNY     58  41  53 VRB6G17   29.77R
GROSSE ILE     SUNNY     58  45  62 SW6       29.72R
HILLSDALE      MOSUNNY   59  43  55 W8        29.76R
HOWELL         MOSUNNY   59  42  52 NW10      29.76R

CITY           SKY/WX    TMP DP  RH WIND       PRES   REMARKS
JACKSON        SUNNY     62  38  40 W9        29.76R
LAMBERTVILLE   SUNNY     68  45  43 W8        29.74R
LANSING        CLOUDY    54  40  59 N9        29.80R
LAPEER         PTSUNNY   57  41  54 N10       29.77R
MASON          MOSUNNY   58  45  61 W10       29.78R
MONROE         SUNNY     67  47  49 NW5       29.73R
MT. CLEMENS    MOSUNNY   66  41  40 W8        29.72R
PONTIAC        MOSUNNY   62  42  47 NW8       29.74R
PORT HOPE        N/A     41  37  86 N7        29.79R
PORT HURON     SUNNY     61  45  55 NW6       29.74R
TRI CITIES     MOSUNNY   52  38  58 N10       29.79R
MIDLAND        FAIR      51  35  55 N10       29.79R
TROY           SUNNY     64  37  36 W8        29.75R
SAGINAW HB     SUNNY     52  36  54 NW8       29.79R
$$
MIZ043>046-050>051-056>058-064>065-071>073-077>080-232100-
SOUTHWEST LOWER MICHIGAN

CITY           SKY/WX    TMP DP  RH WIND       PRES   REMARKS
BATTLE CREEK   CLOUDY    53  43  68 N12       29.80R
BENTON HARBOR  CLOUDY    39  34  82 VRB6      29.83S WCI  35
BIG RAPIDS     CLOUDY    41  33  73 NE3       29.82R
COLDWATER      PTSUNNY   57  45  62 NW8       29.78R
FREMONT        CLOUDY    47  35  63 N9        29.82R
HOLLAND        CLOUDY    42  36  79 NW10      29.83S
GRAND RAPIDS   CLOUDY    50  39  66 W8        29.81R
IONIA          CLOUDY    51  38  60 NW5       29.80R
KALAMAZOO      CLOUDY    50  40  68 N9        29.81R
LUDINGTON      CLOUDY    38  33  79 N10G17    29.85R WCI  32
MARSHALL       CLOUDY    57  43  59 NW9       29.77R
MOUNT PLEASANT PTSUNNY   48  35  62 N8        29.80R
MUSKEGON       CLOUDY    45  36  70 W7        29.83R
SOUTH HAVEN    CLOUDY    38  37  94 N5        29.82F FOG     WCI  35
$$
MIZ016>042-232100-
NORTHERN LOWER MICHIGAN

CITY           SKY/WX    TMP DP  RH WIND       PRES   REMARKS
ALPENA         CLOUDY    42  35  76 NW10      29.81R
BEAVER ISLAND  MOSUNNY   38  28  67 NW10      29.86S WCI  31
BELLAIRE       CLOUDY    37  33  87 NW7       29.87R WCI  31
CADILLAC       CLOUDY    38  31  77 N7        29.81R WCI  33
CHARLEVOIX     CLOUDY    37  33  85 NW9       29.89S WCI  30
FRANKFORT      PTSUNNY   38  32  78 N9G17     29.86S WCI  32
GAYLORD        CLOUDY    37  28  70 NW12      29.81R WCI  29
GRAYLING       PTSUNNY   39  32  75 N12       29.82R WCI  32
HARBOR SPRINGS CLOUDY    38  30  73 NW8G16    29.85R WCI  32
HOUGHTON LAKE  CLOUDY    40  32  73 N9        29.81R WCI  34
MANISTEE       CLOUDY    38  32  79 N9        29.86R WCI  31
OSCODA         CLOUDY    47  34  60 NW12      29.79R
PELLSTON       CLOUDY    37  28  70 NW13      29.84R WCI  29
ROGERS CITY    MOSUNNY   42  32  68 NW14G23   29.82R
TRAVERSE CITY  CLOUDY    39  30  70 NW10      29.85R WCI  32
$$
MIZ007>008-015-232100-
EASTERN UPPER MICHIGAN

CITY           SKY/WX    TMP DP  RH WIND       PRES   REMARKS
KINROSS        CLOUDY    34  26  72 NW16G25   29.82R WCI  24
MACKINAC ISLAN CLOUDY    38  33  84 N8G16     29.83R WCI  32
NEWBERRY       CLOUDY    33  23  66 N8G17     29.84R WCI  27
S. S. MARIE    SUNNY     37  25  61 NW16G25   29.81R WCI  28
MUNISING         N/A     35  24  64 N10       29.88S WCI  27
$$
MIZ004>006-011>014-085-232100-
CENTRAL UPPER MICHIGAN

CITY           SKY/WX    TMP DP  RH WIND       PRES   REMARKS
MANISTIQUE     MOSUNNY   38  24  57 N12G17    29.86R WCI  30
ESCANABA       PTSUNNY   38  25  59 NW9G20    29.88F WCI  31
MENOMINEE      SUNNY     40  27  59 SE12      29.87F WCI  33
SAWYER-GWINN   CLOUDY    32  25  74 N3        29.87S
$$
MIZ001>003-009>011-084-232100-
WESTERN UPPER MICHIGAN

CITY           SKY/WX    TMP DP  RH WIND       PRES   REMARKS
IRON MOUNTAIN  CLOUDY    37  25  61 NW12      29.85F WCI  29
HOUGHTON       CLOUDY    34  21  59 W13       29.86S WCI  25
COPPER HARBOR    N/A     34  22  61 N10G21    29.87R WCI  26
IRONWOOD       CLOUDY    31  24  75 W7        29.91F WCI  24
$$

ABBREVIATIONS USED IN REMARKS
   TC - TEMPERATURE IN CELSIUS
  WCI - WIND CHILL INDEX
   HX - HEAT INDEX
  VSB - VISIBILITY




USA.gov is the U.S. government's official web portal to all federal, state and local government web resources and services.